GW3329 Weather Reports


time (UTC)temp
F
wind
direction
speed
knots
gust
knots
rain 1hr
in
rain 24hr
in
rain mn
in
humidity
%
barometer
mb
20260903131148 56 142 0.0 0.0 0.00 0.00 0.00 94 1017.7
20260903130643 56 146 0.0 0.0 0.00 0.00 0.00 94 1017.6
20260903130138 56 159 0.0 0.0 0.00 0.00 0.00 94 1017.8
20260903125636 56 159 0.0 0.0 0.00 0.00 0.00 94 1017.7
20260903125131 56 159 0.0 0.0 0.00 0.00 0.00 93 1017.6
20260903124625 56 159 0.0 0.0 0.00 0.00 0.00 93 1017.5
20260903124119 56 159 0.0 0.0 0.00 0.00 0.00 93 1017.8
20260903123614 57 159 0.0 0.0 0.00 0.00 0.00 93 1017.6
20260903123113 57 159 0.0 0.0 0.00 0.00 0.00 93 1017.8
20260903122613 57 159 0.0 0.0 0.00 0.00 0.00 93 1017.6
20260903122112 57 159 0.0 0.0 0.00 0.00 0.00 93 1017.7
20260903121607 57 160 0.0 0.0 0.00 0.00 0.00 93 1017.6
20260903121102 57 153 0.0 0.0 0.00 0.00 0.00 93 1017.6
20260903120600 57 153 0.0 0.0 0.00 0.00 0.00 93 1017.9
20260903120050 57 157 0.0 0.0 0.00 0.00 0.00 93 1017.8
20260903115549 57 157 0.0 0.0 0.00 0.00 0.00 93 1017.8
20260903115044 57 155 0.0 0.0 0.00 0.00 0.00 93 1017.8
20260903114539 57 153 0.0 0.0 0.00 0.00 0.00 93 1017.9
20260903114035 57 148 0.0 0.0 0.00 0.00 0.00 93 1017.9
20260903113530 57 153 0.0 0.0 0.00 0.00 0.00 93 1017.9
20260903113026 57 166 0.0 0.0 0.00 0.00 0.00 94 1017.7
20260903112521 57 149 0.0 0.0 0.00 0.00 0.00 94 1017.8
20260903112016 57 149 0.0 0.0 0.00 0.00 0.00 94 1017.7
20260903111515 57 149 0.0 0.0 0.00 0.00 0.00 94 1017.9
20260903111011 57 149 0.0 0.0 0.00 0.00 0.00 94 1017.9
20260903110507 58 149 0.0 0.0 0.00 0.00 0.00 95 1017.8
20260903110007 58 149 0.0 0.0 0.00 0.00 0.00 95 1018.0
20260903105501 58 149 0.0 0.0 0.00 0.00 0.00 95 1018.0
20260903104956 58 149 0.0 0.0 0.00 0.00 0.00 96 1018.2
20260903104456 58 149 0.0 0.0 0.00 0.00 0.00 96 1018.3
20260903103953 58 149 0.0 0.0 0.00 0.00 0.00 96 1018.1
20260903103448 58 149 0.0 0.0 0.00 0.00 0.00 96 1018.2
20260903102944 58 149 0.0 0.0 0.00 0.00 0.00 96 1017.9
20260903102439 58 149 0.0 0.0 0.00 0.00 0.00 96 1018.1
20260903101937 58 149 0.0 0.0 0.00 0.00 0.00 96 1018.3
20260903101433 58 149 0.0 0.0 0.00 0.00 0.00 96 1018.0
20260903100928 58 147 0.0 0.0 0.00 0.00 0.00 96 1017.8
20260903100423 58 148 0.0 0.0 0.00 0.00 0.00 96 1018.2
20260903095920 58 147 0.0 0.0 0.00 0.00 0.00 95 1018.1
20260903095415 58 146 0.0 0.0 0.00 0.00 0.00 95 1018.1
20260903094910 58 149 0.0 0.0 0.00 0.00 0.00 95 1018.0
20260903094408 59 161 0.0 0.0 0.00 0.00 0.00 95 1018.1
20260903093905 59 157 0.0 0.0 0.00 0.00 0.00 95 1018.3
20260903093400 59 158 0.0 0.0 0.00 0.00 0.00 96 1018.4
20260903092856 59 149 0.0 0.0 0.00 0.00 0.00 96 1018.3
20260903092355 59 144 0.0 0.9 0.00 0.00 0.00 96 1018.5
20260903091853 59 171 0.0 0.0 0.00 0.00 0.00 95 1018.4
20260903091353 59 140 0.0 0.0 0.00 0.00 0.00 95 1018.3
20260903090848 59 158 0.0 0.0 0.00 0.00 0.00 95 1018.4
20260903090343 59 157 0.0 0.0 0.00 0.00 0.00 94 1018.4
20260903085841 59 149 0.0 0.0 0.00 0.00 0.00 94 1018.5
20260903085336 59 151 0.0 0.0 0.00 0.00 0.00 94 1018.4
20260903084835 59 153 0.0 0.0 0.00 0.00 0.00 94 1018.6
20260903084334 59 157 0.0 0.0 0.00 0.00 0.00 94 1018.7
20260903083830 59 157 0.0 0.0 0.00 0.00 0.00 94 1018.7
20260903083325 60 158 0.0 0.0 0.00 0.00 0.00 94 1018.5
20260903082824 60 158 0.0 0.0 0.00 0.00 0.00 95 1018.6
20260903082319 60 164 0.0 0.0 0.00 0.00 0.00 95 1018.4
20260903081815 60 157 0.0 0.0 0.00 0.00 0.00 95 1018.8
20260903081310 60 157 0.0 0.0 0.00 0.00 0.00 95 1018.6
20260903080807 60 165 0.0 0.0 0.00 0.00 0.00 94 1018.6
20260903080303 60 158 0.0 0.0 0.00 0.00 0.00 95 1018.5
20260903075802 60 160 0.0 0.0 0.00 0.00 0.00 94 1018.5
20260903075258 60 156 0.0 0.0 0.00 0.00 0.00 95 1018.6
20260903074757 60 157 0.0 0.0 0.00 0.00 0.00 94 1018.7
20260903074252 60 142 0.0 0.0 0.00 0.00 0.00 94 1018.4
20260903073747 60 149 0.0 0.0 0.00 0.00 0.00 94 1018.7
20260903073242 60 155 0.0 0.0 0.00 0.00 0.00 94 1018.7
20260903072738 61 155 0.0 0.0 0.00 0.00 0.00 94 1018.7
20260903072234 61 155 0.0 0.0 0.00 0.00 0.00 94 1018.4
20260903071731 61 157 0.0 0.0 0.00 0.00 0.00 94 1018.6
20260903071226 61 156 0.0 0.0 0.00 0.00 0.00 93 1018.7
20260903070726 61 155 0.0 0.0 0.00 0.00 0.00 93 1018.7
20260903070222 61 155 0.0 0.0 0.00 0.00 0.00 93 1018.8
20260903065717 62 160 0.0 0.0 0.00 0.00 0.00 93 1018.7
20260903065211 61 155 0.0 0.0 0.00 0.00 0.00 94 1018.4
20260903064710 61 260 0.9 1.7 0.00 0.00 0.00 94 1018.8
20260903064205 61 198 0.9 0.9 0.00 0.00 0.00 93 1018.6
20260903063701 62 161 0.0 0.0 0.00 0.00 0.00 94 1018.8
20260903063156 61 153 0.0 0.0 0.00 0.00 0.00 94 1018.6
20260903062652 61 156 0.0 0.0 0.00 0.00 0.00 94 1018.5
20260903062147 61 147 0.0 0.0 0.00 0.00 0.00 94 1018.6
20260903061642 61 161 0.0 0.0 0.00 0.00 0.00 94 1018.6
20260903061141 61 157 0.0 0.0 0.00 0.00 0.00 93 1018.6
20260903060637 61 157 0.0 0.0 0.00 0.00 0.00 93 1018.6
20260903060132 61 162 0.0 0.0 0.00 0.00 0.00 93 1018.8
20260903055629 62 166 0.0 0.0 0.00 0.00 0.00 93 1018.5
20260903055128 62 163 0.0 0.0 0.00 0.00 0.00 94 1018.6
20260903054622 62 153 0.0 0.0 0.00 0.00 0.00 94 1018.8
20260903054118 62 157 0.0 0.0 0.00 0.00 0.00 93 1018.7
20260903053614 62 148 0.0 0.0 0.00 0.00 0.00 93 1018.8
20260903053109 62 157 0.0 0.0 0.00 0.00 0.00 93 1018.8
20260903052605 62 160 0.0 0.0 0.00 0.00 0.00 93 1018.7
20260903052100 62 162 0.0 0.0 0.00 0.00 0.00 93 1018.9
20260903051555 62 153 0.0 0.0 0.00 0.00 0.00 92 1018.8
20260903051051 62 153 0.0 0.0 0.00 0.00 0.00 91 1018.8
20260903050550 62 157 0.0 0.0 0.00 0.00 0.00 91 1018.8
20260903050046 63 161 0.0 0.0 0.00 0.00 0.00 92 1018.9
20260903045544 63 169 0.0 0.9 0.00 0.00 0.00 91 1018.9
20260903045042 63 163 0.0 0.0 0.00 0.00 0.00 90 1018.8
20260903044537 63 166 0.0 0.0 0.00 0.00 0.00 90 1019.0
20260903044032 63 151 0.0 0.0 0.00 0.00 0.00 89 1018.9
20260903043528 63 178 0.9 0.9 0.00 0.00 0.00 90 1019.0
20260903043027 63 193 0.0 0.0 0.00 0.00 0.00 89 1019.0
20260903042521 64 159 0.0 0.0 0.00 0.00 0.00 88 1018.9
20260903042017 64 177 0.0 0.0 0.00 0.00 0.00 88 1018.9
20260903041515 64 165 0.0 0.0 0.00 0.00 0.00 87 1019.1
20260903041014 64 174 0.0 0.9 0.00 0.00 0.00 87 1018.9
20260903040513 64 169 0.0 0.9 0.00 0.00 0.00 86 1019.0
20260903040010 64 212 0.0 1.7 0.00 0.00 0.00 86 1018.8
20260903035505 64 158 0.0 0.9 0.00 0.00 0.00 86 1018.8
20260903035000 65 153 0.0 0.0 0.00 0.00 0.00 85 1018.6
20260903034455 65 183 0.9 1.7 0.00 0.00 0.00 85 1018.5
20260903033955 65 180 0.9 1.7 0.00 0.00 0.00 84 1018.7
20260903033451 65 203 1.7 1.7 0.00 0.00 0.00 83 1018.4
20260903032946 66 163 0.0 0.0 0.00 0.00 0.00 81 1018.6
20260903032436 66 194 0.9 0.9 0.00 0.00 0.00 81 1018.6
20260903031931 66 183 0.0 0.0 0.00 0.00 0.00 79 1018.8
20260903031430 67 181 0.0 0.0 0.00 0.00 0.00 77 1018.5
20260903030925 67 170 0.0 0.9 0.00 0.00 0.00 76 1018.4
20260903030416 67 153 0.0 0.0 0.00 0.00 0.00 74 1018.3
20260903025912 68 166 0.0 0.9 0.00 0.00 0.00 71 1018.3
20260903025408 68 158 0.0 0.0 0.00 0.00 0.00 69 1018.3
20260903024903 68 161 0.0 0.9 0.00 0.00 0.00 67 1018.3
20260903024401 69 205 0.9 0.9 0.00 0.00 0.00 66 1018.5
20260903023856 69 166 0.9 1.7 0.00 0.00 0.00 65 1018.3
20260903023352 69 187 0.9 2.6 0.00 0.00 0.00 64 1018.5
20260903022847 69 175 0.0 0.0 0.00 0.00 0.00 62 1018.3
20260903022346 70 143 1.7 2.6 0.00 0.00 0.00 62 1018.4
20260903021845 70 204 0.9 2.6 0.00 0.00 0.00 61 1018.3
20260903021341 70 148 0.0 1.7 0.00 0.00 0.00 61 1018.4
20260903020841 70 135 0.0 1.7 0.00 0.00 0.00 61 1018.2
20260903020337 71 136 1.7 2.6 0.00 0.00 0.00 59 1018.2
20260903015836 71 179 0.9 2.6 0.00 0.00 0.00 58 1018.3
20260903015332 71 176 1.7 5.2 0.00 0.00 0.00 57 1018.2
20260903014828 71 226 1.7 1.7 0.00 0.00 0.00 55 1018.4
20260903014327 72 173 0.0 5.2 0.00 0.00 0.00 54 1018.3
20260903013822 72 238 3.5 5.2 0.00 0.00 0.00 53 1018.4
20260903013321 72 249 0.9 1.7 0.00 0.00 0.00 53 1018.5
20260903012820 72 167 1.7 3.5 0.00 0.00 0.00 53 1018.5
20260903012315 73 218 1.7 2.6 0.00 0.00 0.00 53 1018.3
20260903011809 74 182 2.6 5.2 0.00 0.00 0.00 53 1018.3
20260903011308 75 209 3.5 6.1 0.00 0.00 0.00 54 1018.3
20260903010803 74 114 1.7 2.6 0.00 0.00 0.00 53 1018.2
20260903010259 75 176 0.9 3.5 0.00 0.00 0.00 52 1018.3
20260903005757 75 258 1.7 5.2 0.00 0.00 0.00 52 1018.3
20260903005247 75 261 3.5 5.2 0.00 0.00 0.00 52 1018.3
20260903004742 75 220 2.6 3.5 0.00 0.00 0.00 52 1018.3
20260903004237 75 146 1.7 5.2 0.00 0.00 0.00 52 1018.3
20260903003733 76 325 3.5 6.1 0.00 0.00 0.00 51 1018.3
20260903003228 77 174 2.6 6.1 0.00 0.00 0.00 50 1018.2
20260903002723 77 284 2.6 7.0 0.00 0.00 0.00 49 1018.2
20260903002217 77 178 1.7 1.7 0.00 0.00 0.00 50 1018.3
20260903001713 77 193 2.6 3.5 0.00 0.00 0.00 49 1018.4
20260903001206 78 200 1.7 2.6 0.00 0.00 0.00 48 1018.3
20260903000702 78 260 1.7 7.0 0.00 0.00 0.00 47 1018.3
20260903000201 78 250 1.7 7.0 0.00 0.00 0.00 46 1018.4
20260902235654 78 177 5.2 7.8 0.00 0.00 0.00 42 1018.3
20260902235150 78 251 2.6 7.8 0.00 0.00 0.00 43 1018.5
20260902234644 78 159 1.7 5.2 0.00 0.00 0.00 43 1018.3
20260902234143 78 301 1.7 7.0 0.00 0.00 0.00 43 1018.5
20260902233637 78 250 3.5 6.1 0.00 0.00 0.00 44 1018.4
20260902233131 78 176 0.9 2.6 0.00 0.00 0.00 45 1018.2
20260902232631 77 228 0.9 3.5 0.00 0.00 0.00 51 1018.6
20260902232130 78 274 3.5 7.8 0.00 0.00 0.00 52 1018.6
20260902231624 77 251 3.5 6.1 0.00 0.00 0.00 53 1018.5
20260902231124 77 186 2.6 12.2 0.00 0.00 0.00 54 1018.4
20260902230620 78 116 1.7 6.1 0.00 0.00 0.00 55 1018.5
20260902230118 78 276 3.5 5.2 0.00 0.00 0.00 55 1018.5
20260902225613 78 271 2.6 7.0 0.00 0.00 0.00 55 1018.5
20260902225113 79 127 0.9 1.7 0.00 0.00 0.00 54 1018.6
20260902224612 78 209 1.7 6.1 0.00 0.00 0.00 56 1018.7
20260902224107 78 144 5.2 11.3 0.00 0.00 0.00 57 1018.6
20260902223604 79 256 3.5 6.1 0.00 0.00 0.00 56 1018.8
20260902223103 80 277 3.5 7.0 0.00 0.00 0.00 56 1018.9
20260902222601 79 299 1.7 5.2 0.00 0.00 0.00 56 1018.8
20260902222100 80 195 0.9 3.5 0.00 0.00 0.00 55 1018.8
20260902221556 79 272 4.3 7.8 0.00 0.00 0.00 55 1019.1
20260902221056 78 221 3.5 5.2 0.00 0.00 0.00 57 1019.0
20260902220551 79 187 0.9 3.5 0.00 0.00 0.00 55 1019.0
20260902220046 79 207 4.3 6.1 0.00 0.00 0.00 55 1019.1
20260902215543 80 231 1.7 5.2 0.00 0.00 0.00 55 1019.0
20260902215038 80 257 4.3 7.0 0.00 0.00 0.00 55 1019.0
20260902214537 80 186 4.3 7.0 0.00 0.00 0.00 54 1019.2
20260902214036 80 172 5.2 8.7 0.00 0.00 0.00 55 1019.0
20260902213532 79 276 1.7 7.0 0.00 0.00 0.00 57 1019.3
20260902213031 79 356 3.5 5.2 0.00 0.00 0.00 57 1019.0
20260902212527 79 278 3.5 7.0 0.00 0.00 0.00 57 1019.2
20260902212023 79 182 8.7 9.6 0.00 0.00 0.00 57 1019.4
20260902211519 80 184 1.7 8.7 0.00 0.00 0.00 56 1019.1
20260902211014 80 276 1.7 5.2 0.00 0.00 0.00 56 1019.4
20260902210509 80 146 0.0 3.5 0.00 0.00 0.00 57 1019.3
20260902210008 80 197 0.9 1.7 0.00 0.00 0.00 56 1019.3
20260902205502 79 269 4.3 7.0 0.00 0.00 0.00 58 1019.7
20260902204958 80 316 5.2 7.8 0.00 0.00 0.00 57 1019.4
20260902204457 78 184 0.9 7.8 0.00 0.00 0.00 59 1019.7
20260902203953 79 18 2.6 2.6 0.00 0.00 0.00 59 1019.6
20260902203449 79 116 0.9 2.6 0.00 0.00 0.00 57 1019.3
20260902202947 80 231 1.7 5.2 0.00 0.00 0.00 58 1019.3
20260902202443 78 174 1.7 2.6 0.00 0.00 0.00 59 1019.4
20260902201940 79 81 0.0 5.2 0.00 0.00 0.00 59 1019.6
20260902201435 79 17 0.9 7.0 0.00 0.00 0.00 57 1019.6
20260902200934 79 244 2.6 6.1 0.00 0.00 0.00 57 1019.9
20260902200429 79 226 3.5 6.1 0.00 0.00 0.00 58 1019.8
20260902195925 79 110 1.7 2.6 0.00 0.00 0.00 58 1019.7
20260902195421 78 41 0.0 6.1 0.00 0.00 0.00 58 1019.9
20260902194915 79 15 5.2 8.7 0.00 0.00 0.00 58 1020.1
20260902194414 79 51 0.9 2.6 0.00 0.00 0.00 59 1020.0
20260902193909 78 218 1.7 7.0 0.00 0.00 0.00 59 1020.2
20260902193405 79 242 3.5 6.1 0.00 0.00 0.00 59 1020.0
20260902192903 79 124 0.9 7.8 0.00 0.00 0.00 60 1019.8
20260902192402 79 309 1.7 2.6 0.00 0.00 0.00 60 1020.1
20260902191857 79 228 4.3 7.0 0.00 0.00 0.00 58 1020.0
20260902191352 80 197 0.9 2.6 0.00 0.00 0.00 57 1020.1
20260902190842 79 214 1.7 2.6 0.00 0.00 0.00 57 1020.2
20260902190341 79 65 1.7 1.7 0.00 0.00 0.00 57 1020.2
20260902185838 78 229 0.9 2.6 0.00 0.00 0.00 57 1020.1
20260902185332 78 353 1.7 3.5 0.00 0.00 0.00 56 1020.0
20260902184828 79 301 3.5 6.1 0.00 0.00 0.00 55 1020.2
20260902184324 79 236 1.7 2.6 0.00 0.00 0.00 54 1020.3
20260902183819 79 103 0.9 2.6 0.00 0.00 0.00 54 1020.0
20260902183315 78 156 0.0 1.7 0.00 0.00 0.00 54 1020.2
20260902182811 78 52 1.7 3.5 0.00 0.00 0.00 54 1020.3
20260902182307 78 65 0.9 2.6 0.00 0.00 0.00 54 1020.1
20260902181804 78 299 4.3 7.0 0.00 0.00 0.00 52 1020.4
20260902181303 78 271 1.7 6.1 0.00 0.00 0.00 53 1020.4
20260902180758 78 146 0.9 1.7 0.00 0.00 0.00 54 1020.3
20260902180253 77 233 1.7 2.6 0.00 0.00 0.00 53 1020.2
20260902175748 78 198 3.5 3.5 0.00 0.00 0.00 53 1020.3
20260902175244 78 253 2.6 2.6 0.00 0.00 0.00 52 1020.4
20260902174740 78 144 0.9 2.6 0.00 0.00 0.00 53 1020.3
20260902174236 77 94 0.0 0.9 0.00 0.00 0.00 55 1020.4
20260902173732 76 114 1.7 1.7 0.00 0.00 0.00 55 1020.2
20260902173231 76 84 2.6 2.6 0.00 0.00 0.00 56 1020.4
20260902172726 76 131 0.0 1.7 0.00 0.00 0.00 56 1020.4
20260902172226 76 198 1.7 2.6 0.00 0.00 0.00 54 1020.5
20260902171721 76 62 0.9 0.9 0.00 0.00 0.00 55 1020.1
20260902171216 75 299 0.9 1.7 0.00 0.00 0.00 56 1020.3
20260902170712 75 103 0.9 0.9 0.00 0.00 0.00 55 1020.1
20260902170207 74 136 0.9 1.7 0.00 0.00 0.00 57 1020.2
20260902165702 74 109 0.0 0.9 0.00 0.00 0.00 58 1020.4
20260902165156 73 72 0.0 1.7 0.00 0.00 0.00 58 1020.1
20260902164652 74 46 0.0 1.7 0.00 0.00 0.00 58 1020.3
20260902164151 73 121 0.9 2.6 0.00 0.00 0.00 55 1020.0
20260902163646 73 84 0.0 0.9 0.00 0.00 0.00 55 1020.1
20260902163146 73 91 0.9 1.7 0.00 0.00 0.00 60 1020.2
20260902162644 72 112 0.9 1.7 0.00 0.00 0.00 60 1020.1
20260902162138 72 106 0.9 2.6 0.00 0.00 0.00 65 1020.0
20260902161634 71 135 0.9 1.7 0.00 0.00 0.00 64 1020.0
20260902161130 71 123 0.9 2.6 0.00 0.00 0.00 63 1019.9
20260902160626 71 78 0.0 0.9 0.00 0.00 0.00 67 1020.0
20260902160121 71 89 1.7 1.7 0.00 0.00 0.00 69 1020.0
20260902155619 70 90 1.7 1.7 0.00 0.00 0.00 72 1020.1
20260902155118 70 161 0.9 1.7 0.00 0.00 0.00 73 1020.0
20260902154614 69 128 1.7 2.6 0.00 0.00 0.00 74 1020.2
20260902154108 69 148 1.7 2.6 0.00 0.00 0.00 76 1020.1
20260902153607 69 123 0.9 2.6 0.00 0.00 0.00 77 1020.3
20260902153103 68 136 0.0 0.9 0.00 0.00 0.00 77 1020.1
20260902152559 68 153 1.7 2.6 0.00 0.00 0.00 77 1020.1
20260902152054 68 118 0.9 1.7 0.00 0.00 0.00 77 1020.2
20260902151549 67 122 0.0 0.9 0.00 0.00 0.00 80 1020.3
20260902151048 67 141 0.0 0.0 0.00 0.00 0.00 81 1020.2
20260902150544 66 141 0.0 0.9 0.00 0.00 0.00 82 1020.1
20260902150039 65 145 0.0 0.0 0.00 0.00 0.00 83 1019.9
20260902145529 64 117 0.9 1.7 0.00 0.00 0.00 85 1020.1
20260902145029 64 86 1.7 1.7 0.00 0.00 0.00 85 1020.0
20260902144526 63 115 1.7 2.6 0.00 0.00 0.00 86 1020.1
20260902144026 63 102 1.7 1.7 0.00 0.00 0.00 86 1020.1
20260902143520 63 95 1.7 1.7 0.00 0.00 0.00 86 1020.0
20260902143016 62 126 0.0 0.0 0.00 0.00 0.00 88 1020.1
20260902142512 61 111 0.0 0.0 0.00 0.00 0.00 88 1020.0
20260902142007 61 119 0.0 0.0 0.00 0.00 0.00 89 1020.1
20260902141501 59 130 0.0 0.0 0.00 0.00 0.00 92 1020.1
20260902140955 58 147 0.0 0.0 0.00 0.00 0.00 94 1019.9
20260902140451 57 148 0.0 0.0 0.00 0.00 0.00 95 1019.7
20260902135950 56 149 0.0 0.0 0.00 0.00 0.00 96 1019.7
20260902135446 56 135 0.0 0.0 0.00 0.00 0.00 96 1019.7
20260902134945 56 108 0.0 0.0 0.00 0.00 0.00 96 1019.7
20260902134441 56 118 0.0 0.0 0.00 0.00 0.00 96 1019.6
20260902133936 55 156 0.0 0.0 0.00 0.00 0.00 96 1019.4
20260902133431 55 140 0.0 0.0 0.00 0.00 0.00 96 1019.4
20260902132926 55 139 0.0 0.0 0.00 0.00 0.00 96 1019.6
20260902132421 55 152 0.0 0.0 0.00 0.00 0.00 96 1019.6
20260902131916 55 132 0.0 0.0 0.00 0.00 0.00 96 1019.3
20260902131413 55 134 0.0 0.0 0.00 0.00 0.00 96 1019.8